UAL256 KORD-KEWR

Flight info

Callsign UAL256
Flight time 1h 34m
Altitude 37000
Route DUFEE ELX HAAKK DOXXY SOSIC KEEHO J584 SLT FQM3
Aircraft A320/M-SDE3FGHIRWY/LB1

Departure

Time 2026-05-04 19:45
Airport Chicago O'Hare International Airport (KORD)

Arrival

Time 2026-05-04 21:19
Airport Newark Liberty International Airport (KEWR)
Time Latitude Longitude Altitude Speed Heading
2026-05-04 19:12 41.97753 -87.90764 669 ft 0 kts 99°
2026-05-04 19:30 41.97757 -87.90793 669 ft 4 kts 104°
2026-05-04 19:30 41.97766 -87.90826 665 ft 4 kts 128°
2026-05-04 19:30 41.97782 -87.90841 668 ft 2 kts 189°
2026-05-04 19:30 41.97799 -87.90837 668 ft 0 kts 189°
2026-05-04 19:35 41.97786 -87.90840 667 ft 3 kts 189°
2026-05-04 19:35 41.97754 -87.90848 668 ft 6 kts 189°
2026-05-04 19:36 41.97704 -87.90859 669 ft 8 kts 189°
2026-05-04 19:36 41.97639 -87.90874 669 ft 11 kts 189°
2026-05-04 19:36 41.97564 -87.90905 669 ft 12 kts 225°
2026-05-04 19:36 41.97530 -87.91016 669 ft 14 kts 250°
2026-05-04 19:37 41.97473 -87.91045 667 ft 10 kts 145°
2026-05-04 19:37 41.97413 -87.90977 669 ft 12 kts 139°
2026-05-04 19:37 41.97347 -87.90896 669 ft 14 kts 137°
2026-05-04 19:37 41.97275 -87.90799 669 ft 15 kts 131°
2026-05-04 19:38 41.97223 -87.90667 669 ft 17 kts 101°
2026-05-04 19:38 41.97210 -87.90503 669 ft 18 kts 94°
2026-05-04 19:38 41.97205 -87.90325 669 ft 19 kts 90°
2026-05-04 19:38 41.97204 -87.90183 669 ft 6 kts 90°
2026-05-04 19:39 41.97181 -87.90133 669 ft 7 kts 165°
2026-05-04 19:39 41.97122 -87.90132 669 ft 10 kts 181°
2026-05-04 19:39 41.97051 -87.90116 669 ft 11 kts 138°
2026-05-04 19:39 41.97042 -87.90007 669 ft 13 kts 89°
2026-05-04 19:40 41.97042 -87.89879 669 ft 15 kts 90°
2026-05-04 19:40 41.97042 -87.89735 670 ft 16 kts 90°
2026-05-04 19:40 41.97041 -87.89578 670 ft 18 kts 90°
2026-05-04 19:40 41.97041 -87.89405 669 ft 19 kts 90°
2026-05-04 19:41 41.97041 -87.89215 669 ft 21 kts 90°
2026-05-04 19:41 41.97043 -87.89010 669 ft 23 kts 89°
2026-05-04 19:41 41.97044 -87.88790 668 ft 24 kts 90°
2026-05-04 19:41 41.97044 -87.88556 669 ft 26 kts 90°
2026-05-04 19:42 41.97044 -87.88307 669 ft 28 kts 89°
2026-05-04 19:42 41.97045 -87.88103 670 ft 3 kts 96°
2026-05-04 19:42 41.97045 -87.88101 670 ft 1 kts 96°
2026-05-04 19:43 41.97041 -87.88079 670 ft 5 kts 107°
2026-05-04 19:43 41.97009 -87.88038 671 ft 8 kts 155°
2026-05-04 19:43 41.96940 -87.88043 672 ft 12 kts 210°
2026-05-04 19:43 41.96931 -87.88051 672 ft 0 kts 215°
2026-05-04 19:44 41.96928 -87.88054 672 ft 2 kts 215°
2026-05-04 19:44 41.96891 -87.88094 670 ft 22 kts 220°
2026-05-04 19:44 41.96554 -87.88497 670 ft 105 kts 221°
2026-05-04 19:44 41.95852 -87.89326 771 ft 154 kts 220°
2026-05-04 19:45 41.95050 -87.90284 1613 ft 154 kts 225°
2026-05-04 19:45 41.94238 -87.91229 2545 ft 156 kts 216°
2026-05-04 19:45 41.93214 -87.91521 3490 ft 155 kts 167°
2026-05-04 19:45 41.92398 -87.90446 3775 ft 190 kts 114°
2026-05-04 19:46 41.92250 -87.88544 3897 ft 219 kts 91°
2026-05-04 19:46 41.92373 -87.86398 4159 ft 239 kts 85°
2026-05-04 19:46 41.92560 -87.84120 4566 ft 254 kts 86°
2026-05-04 19:46 41.92755 -87.81694 4888 ft 276 kts 86°
2026-05-04 19:47 41.92954 -87.79032 5361 ft 294 kts 85°
2026-05-04 19:47 41.93146 -87.76264 5919 ft 300 kts 85°
2026-05-04 19:47 41.93326 -87.73460 6630 ft 303 kts 86°
2026-05-04 19:47 41.93510 -87.70622 7419 ft 308 kts 86°
2026-05-04 19:48 41.93823 -87.67735 8082 ft 317 kts 72°
2026-05-04 19:48 41.94582 -87.64937 8835 ft 321 kts 68°
2026-05-04 19:48 41.95384 -87.62120 9562 ft 326 kts 68°
2026-05-04 19:48 41.96207 -87.59255 10239 ft 330 kts 68°
2026-05-04 19:49 41.97063 -87.56294 10527 ft 351 kts 68°
2026-05-04 19:49 41.97978 -87.53130 10715 ft 372 kts 68°
2026-05-04 19:49 41.98923 -87.49848 11223 ft 380 kts 68°
2026-05-04 19:49 41.99880 -87.46505 11836 ft 386 kts 68°
2026-05-04 19:50 42.00847 -87.43117 12457 ft 390 kts 68°
2026-05-04 19:50 42.01808 -87.39732 13086 ft 395 kts 68°
2026-05-04 19:50 42.02791 -87.36267 13675 ft 399 kts 68°
2026-05-04 19:50 42.03784 -87.32766 14255 ft 402 kts 68°
2026-05-04 19:51 42.04784 -87.29244 14855 ft 404 kts 68°
2026-05-04 19:51 42.05785 -87.25706 15440 ft 406 kts 68°
2026-05-04 19:51 42.06794 -87.22137 16034 ft 409 kts 68°
2026-05-04 19:51 42.07809 -87.18549 16616 ft 411 kts 68°
2026-05-04 19:52 42.08830 -87.14937 17194 ft 414 kts 68°
2026-05-04 19:52 42.09856 -87.11307 17798 ft 416 kts 67°
2026-05-04 19:52 42.10813 -87.07610 18333 ft 420 kts 74°
2026-05-04 19:52 42.11346 -87.03727 18855 ft 424 kts 84°
2026-05-04 19:53 42.11510 -86.99746 19388 ft 427 kts 87°
2026-05-04 19:53 42.11653 -86.95738 19921 ft 430 kts 87°
2026-05-04 19:53 42.11798 -86.91707 20437 ft 433 kts 87°
2026-05-04 19:53 42.11946 -86.87644 20946 ft 436 kts 87°
2026-05-04 19:54 42.12092 -86.83600 21439 ft 439 kts 87°
2026-05-04 19:54 42.12240 -86.79481 21938 ft 442 kts 87°
2026-05-04 19:54 42.12387 -86.75335 22425 ft 445 kts 87°
2026-05-04 19:54 42.12535 -86.71163 22910 ft 448 kts 87°
2026-05-04 19:55 42.12683 -86.66964 23354 ft 450 kts 87°
2026-05-04 19:55 42.12830 -86.62740 23758 ft 453 kts 87°
2026-05-04 19:55 42.12976 -86.58495 24159 ft 455 kts 87°
2026-05-04 19:55 42.13121 -86.54231 24557 ft 457 kts 87°
2026-05-04 19:56 42.13265 -86.49950 24960 ft 458 kts 87°
2026-05-04 19:56 42.13404 -86.45656 25346 ft 460 kts 87°
2026-05-04 19:56 42.13539 -86.41336 25722 ft 462 kts 87°
2026-05-04 19:56 42.13679 -86.37001 26092 ft 464 kts 87°
2026-05-04 19:57 42.13818 -86.32653 26452 ft 466 kts 87°
2026-05-04 19:57 42.13956 -86.28274 26790 ft 469 kts 87°
2026-05-04 19:57 42.14093 -86.23860 27067 ft 473 kts 87°
2026-05-04 19:57 42.14227 -86.19424 27409 ft 475 kts 87°
2026-05-04 19:58 42.14359 -86.14962 27766 ft 477 kts 87°
2026-05-04 19:58 42.14478 -86.10485 28128 ft 479 kts 88°
2026-05-04 19:58 42.14524 -86.05985 28476 ft 481 kts 89°
2026-05-04 19:58 42.14503 -86.01472 28825 ft 483 kts 90°
2026-05-04 19:59 42.14440 -85.96936 29162 ft 485 kts 91°
2026-05-04 19:59 42.14364 -85.92443 29487 ft 487 kts 91°
2026-05-04 19:59 42.14292 -85.87866 29813 ft 489 kts 90°
2026-05-04 19:59 42.14234 -85.83298 30213 ft 488 kts 90°
2026-05-04 20:00 42.14190 -85.78728 30610 ft 487 kts 90°
2026-05-04 20:00 42.14156 -85.74173 30996 ft 486 kts 90°
2026-05-04 20:00 42.14126 -85.69617 31377 ft 486 kts 90°
2026-05-04 20:00 42.14096 -85.65070 31765 ft 485 kts 90°
2026-05-04 20:01 42.14060 -85.60522 32151 ft 485 kts 90°
2026-05-04 20:01 42.14016 -85.55977 32537 ft 484 kts 90°
2026-05-04 20:01 42.13964 -85.51445 32924 ft 484 kts 90°
2026-05-04 20:01 42.13908 -85.46916 33310 ft 483 kts 90°
2026-05-04 20:02 42.13850 -85.42395 33680 ft 483 kts 90°
2026-05-04 20:02 42.13793 -85.37873 34022 ft 482 kts 90°
2026-05-04 20:02 42.13739 -85.33369 34341 ft 481 kts 90°
2026-05-04 20:02 42.13683 -85.28867 34651 ft 480 kts 90°
2026-05-04 20:03 42.13627 -85.24371 34945 ft 480 kts 90°
2026-05-04 20:03 42.13570 -85.19867 35235 ft 480 kts 90°
2026-05-04 20:03 42.13512 -85.15374 35510 ft 479 kts 90°
2026-05-04 20:03 42.13452 -85.10940 35780 ft 479 kts 90°
2026-05-04 20:04 42.13387 -85.06454 36046 ft 479 kts 90°
2026-05-04 20:04 42.13320 -85.01965 36303 ft 479 kts 90°
2026-05-04 20:04 42.13245 -84.97480 36538 ft 479 kts 90°
2026-05-04 20:04 42.13165 -84.92992 36659 ft 481 kts 90°
2026-05-04 20:05 42.13080 -84.88470 36670 ft 484 kts 90°
2026-05-04 20:05 42.12915 -84.79374 36682 ft 486 kts 91°
2026-05-04 20:06 42.12734 -84.70257 36688 ft 487 kts 91°
2026-05-04 20:06 42.12552 -84.61141 36686 ft 487 kts 91°
2026-05-04 20:07 42.12352 -84.52033 36688 ft 487 kts 91°
2026-05-04 20:07 42.12746 -84.42960 36691 ft 485 kts 79°
2026-05-04 20:08 42.13777 -84.33985 36693 ft 485 kts 79°
2026-05-04 20:08 42.14768 -84.25057 36689 ft 485 kts 79°
2026-05-04 20:09 42.15765 -84.16047 36691 ft 486 kts 79°
2026-05-04 20:09 42.16761 -84.07037 36692 ft 486 kts 79°
2026-05-04 20:10 42.17754 -83.98020 36691 ft 486 kts 79°
2026-05-04 20:10 42.18735 -83.88985 36690 ft 487 kts 80°
2026-05-04 20:11 42.19702 -83.79950 36692 ft 487 kts 80°
2026-05-04 20:11 42.20674 -83.70910 36693 ft 487 kts 80°
2026-05-04 20:12 42.21640 -83.61857 36701 ft 487 kts 80°
2026-05-04 20:12 42.22529 -83.52789 36717 ft 488 kts 85°
2026-05-04 20:13 42.22019 -83.43741 36706 ft 488 kts 104°
2026-05-04 20:13 42.20399 -83.34853 36689 ft 488 kts 104°
2026-05-04 20:14 42.18784 -83.25965 36692 ft 488 kts 104°
2026-05-04 20:14 42.17168 -83.17073 36696 ft 488 kts 104°
2026-05-04 20:15 42.15543 -83.08197 36698 ft 488 kts 104°
2026-05-04 20:15 42.13910 -82.99322 36699 ft 488 kts 104°
2026-05-04 20:16 42.12266 -82.90466 36698 ft 487 kts 104°
2026-05-04 20:16 42.10625 -82.81660 36706 ft 488 kts 104°
2026-05-04 20:17 42.08971 -82.72808 36717 ft 488 kts 104°
2026-05-04 20:17 42.07306 -82.63955 36721 ft 488 kts 104°
2026-05-04 20:18 42.05638 -82.55104 36724 ft 488 kts 104°
2026-05-04 20:18 42.03958 -82.46258 36722 ft 488 kts 104°
2026-05-04 20:19 42.02560 -82.38907 36729 ft 488 kts 104°
2026-05-04 20:19 42.00870 -82.30077 36723 ft 487 kts 104°
2026-05-04 20:20 41.99175 -82.21251 36721 ft 488 kts 104°
2026-05-04 20:20 41.97471 -82.12424 36721 ft 488 kts 105°
2026-05-04 20:21 41.95768 -82.03656 36722 ft 488 kts 105°
2026-05-04 20:21 41.93193 -81.90415 36730 ft 488 kts 105°
2026-05-04 20:22 41.91629 -81.81549 36729 ft 488 kts 97°
2026-05-04 20:22 41.90832 -81.72503 36735 ft 488 kts 96°
2026-05-04 20:23 41.90034 -81.63457 36739 ft 488 kts 96°
2026-05-04 20:23 41.89229 -81.54467 36752 ft 488 kts 96°
2026-05-04 20:24 41.88411 -81.45417 36758 ft 489 kts 96°
2026-05-04 20:24 41.87581 -81.36351 36761 ft 489 kts 96°
2026-05-04 20:25 41.86739 -81.27294 36763 ft 489 kts 96°
2026-05-04 20:25 41.85899 -81.18240 36763 ft 489 kts 96°
2026-05-04 20:26 41.85052 -81.09182 36755 ft 489 kts 96°
2026-05-04 20:26 41.84199 -81.00133 36775 ft 489 kts 96°
2026-05-04 20:27 41.83345 -80.91142 36783 ft 489 kts 96°
2026-05-04 20:27 41.82474 -80.82108 36792 ft 488 kts 96°
2026-05-04 20:28 41.81598 -80.73089 36790 ft 488 kts 96°
2026-05-04 20:28 41.80718 -80.64076 36789 ft 488 kts 96°
2026-05-04 20:29 41.79826 -80.55063 36801 ft 487 kts 96°
2026-05-04 20:29 41.78932 -80.46059 36804 ft 487 kts 96°
2026-05-04 20:30 41.78038 -80.37066 36807 ft 487 kts 96°
2026-05-04 20:30 41.77129 -80.28071 36811 ft 487 kts 97°
2026-05-04 20:31 41.76212 -80.19087 36811 ft 487 kts 97°
2026-05-04 20:31 41.75291 -80.10101 36817 ft 487 kts 97°
2026-05-04 20:32 41.74362 -80.01109 36815 ft 487 kts 97°
2026-05-04 20:32 41.73425 -79.92120 36815 ft 488 kts 97°
2026-05-04 20:33 41.72480 -79.83121 36826 ft 488 kts 97°
2026-05-04 20:33 41.71537 -79.74187 36832 ft 488 kts 97°
2026-05-04 20:34 41.70577 -79.65190 36839 ft 488 kts 97°
2026-05-04 20:34 41.69615 -79.56196 36839 ft 488 kts 97°
2026-05-04 20:35 41.68638 -79.47203 36839 ft 489 kts 97°
2026-05-04 20:35 41.67654 -79.38211 36849 ft 489 kts 97°
2026-05-04 20:36 41.66661 -79.29220 36846 ft 488 kts 97°
2026-05-04 20:36 41.65662 -79.20238 36845 ft 488 kts 97°
2026-05-04 20:37 41.64665 -79.11264 36847 ft 488 kts 97°
2026-05-04 20:37 41.63655 -79.02282 36849 ft 488 kts 97°
2026-05-04 20:38 41.62645 -78.93325 36847 ft 487 kts 97°
2026-05-04 20:38 41.61626 -78.84364 36846 ft 487 kts 97°
2026-05-04 20:39 41.60593 -78.75447 36822 ft 493 kts 97°
2026-05-04 20:39 41.59544 -78.66337 36831 ft 497 kts 97°
2026-05-04 20:40 41.58484 -78.57203 36827 ft 498 kts 97°
2026-05-04 20:40 41.57411 -78.48065 36827 ft 498 kts 97°
2026-05-04 20:41 41.56330 -78.38935 36837 ft 498 kts 97°
2026-05-04 20:41 41.55785 -78.34361 36713 ft 497 kts 97°
2026-05-04 20:41 41.55244 -78.29847 36552 ft 489 kts 97°
2026-05-04 20:42 41.54704 -78.25375 36391 ft 486 kts 97°
2026-05-04 20:42 41.54166 -78.20938 36237 ft 484 kts 97°
2026-05-04 20:42 41.53631 -78.16499 36081 ft 484 kts 97°
2026-05-04 20:42 41.53110 -78.12127 35929 ft 483 kts 97°
2026-05-04 20:43 41.52580 -78.07703 35726 ft 483 kts 97°
2026-05-04 20:43 41.52047 -78.03280 35471 ft 482 kts 97°
2026-05-04 20:43 41.51510 -77.98869 35221 ft 482 kts 97°
2026-05-04 20:43 41.50959 -77.94467 34973 ft 481 kts 97°
2026-05-04 20:44 41.50366 -77.90071 34726 ft 480 kts 98°
2026-05-04 20:44 41.49740 -77.85697 34483 ft 479 kts 98°
2026-05-04 20:44 41.49101 -77.81343 34234 ft 477 kts 98°
2026-05-04 20:44 41.48464 -77.77013 34000 ft 475 kts 98°
2026-05-04 20:45 41.47834 -77.72701 33762 ft 472 kts 98°
2026-05-04 20:45 41.47215 -77.68410 33469 ft 470 kts 98°
2026-05-04 20:45 41.46605 -77.64137 33185 ft 468 kts 98°
2026-05-04 20:45 41.46001 -77.59894 32915 ft 465 kts 98°
2026-05-04 20:46 41.45396 -77.55664 32790 ft 463 kts 98°
2026-05-04 20:46 41.44788 -77.51439 32835 ft 465 kts 98°
2026-05-04 20:46 41.43561 -77.42969 32831 ft 465 kts 98°
2026-05-04 20:47 41.42344 -77.34568 32823 ft 465 kts 98°
2026-05-04 20:47 41.41101 -77.26071 32829 ft 465 kts 98°
2026-05-04 20:48 41.39868 -77.17682 32797 ft 463 kts 98°
2026-05-04 20:48 41.39248 -77.13474 32206 ft 463 kts 98°
2026-05-04 20:48 41.38628 -77.09286 31690 ft 459 kts 98°
2026-05-04 20:49 41.38011 -77.05121 31148 ft 457 kts 98°
2026-05-04 20:49 41.37393 -77.00973 30615 ft 456 kts 99°
2026-05-04 20:49 41.36773 -76.96835 30090 ft 454 kts 99°
2026-05-04 20:49 41.36153 -76.92721 29510 ft 452 kts 99°
2026-05-04 20:50 41.35537 -76.88633 29002 ft 449 kts 99°
2026-05-04 20:50 41.34923 -76.84568 28496 ft 446 kts 99°
2026-05-04 20:50 41.34313 -76.80537 27982 ft 443 kts 99°
2026-05-04 20:50 41.33599 -76.76557 27511 ft 442 kts 107°
2026-05-04 20:51 41.32603 -76.72762 27078 ft 438 kts 108°
2026-05-04 20:51 41.31586 -76.68951 26631 ft 436 kts 108°
2026-05-04 20:51 41.30574 -76.65162 26210 ft 433 kts 108°
2026-05-04 20:51 41.29567 -76.61394 25787 ft 432 kts 109°
2026-05-04 20:52 41.28561 -76.57639 25363 ft 430 kts 109°
2026-05-04 20:52 41.27556 -76.53900 24943 ft 429 kts 109°
2026-05-04 20:52 41.26548 -76.50159 24523 ft 429 kts 109°
2026-05-04 20:52 41.25543 -76.46436 24093 ft 428 kts 109°
2026-05-04 20:53 41.24538 -76.42711 23658 ft 428 kts 109°
2026-05-04 20:53 41.23537 -76.38990 23173 ft 427 kts 109°
2026-05-04 20:53 41.22539 -76.35276 22725 ft 425 kts 109°
2026-05-04 20:53 41.21546 -76.31592 22262 ft 423 kts 109°
2026-05-04 20:54 41.20556 -76.27929 21823 ft 420 kts 109°
2026-05-04 20:54 41.19566 -76.24291 21380 ft 418 kts 110°
2026-05-04 20:54 41.18579 -76.20671 20872 ft 417 kts 110°
2026-05-04 20:54 41.17593 -76.17058 20391 ft 415 kts 110°
2026-05-04 20:55 41.16612 -76.13468 19978 ft 412 kts 110°
2026-05-04 20:55 41.15638 -76.09897 19501 ft 411 kts 110°
2026-05-04 20:55 41.14664 -76.06342 19038 ft 409 kts 110°
2026-05-04 20:55 41.13707 -76.02851 18594 ft 406 kts 111°
2026-05-04 20:56 41.12747 -75.99341 18148 ft 404 kts 111°
2026-05-04 20:56 41.11795 -75.95870 17785 ft 397 kts 111°
2026-05-04 20:56 41.10852 -75.92451 17319 ft 393 kts 111°
2026-05-04 20:56 41.09920 -75.89072 16908 ft 389 kts 111°
2026-05-04 20:57 41.08997 -75.85720 16487 ft 385 kts 111°
2026-05-04 20:57 41.08084 -75.82404 16070 ft 382 kts 111°
2026-05-04 20:57 41.07173 -75.79113 15611 ft 379 kts 111°
2026-05-04 20:57 41.06267 -75.75834 15171 ft 377 kts 111°
2026-05-04 20:58 41.05366 -75.72577 14741 ft 375 kts 111°
2026-05-04 20:58 41.04466 -75.69340 14322 ft 373 kts 111°
2026-05-04 20:58 41.03572 -75.66131 13996 ft 368 kts 111°
2026-05-04 20:58 41.02696 -75.62986 13737 ft 361 kts 111°
2026-05-04 20:59 41.01834 -75.59899 13420 ft 355 kts 111°
2026-05-04 20:59 41.00980 -75.56851 13075 ft 351 kts 111°
2026-05-04 20:59 41.00149 -75.53877 12737 ft 347 kts 111°
2026-05-04 20:59 40.99317 -75.50894 12398 ft 344 kts 111°
2026-05-04 21:00 40.98494 -75.47940 12056 ft 340 kts 111°
2026-05-04 21:00 40.97678 -75.45017 11731 ft 337 kts 112°
2026-05-04 21:00 40.96867 -75.42121 11397 ft 334 kts 112°
2026-05-04 21:00 40.96065 -75.39264 11075 ft 329 kts 112°
2026-05-04 21:01 40.95272 -75.36451 10756 ft 323 kts 112°
2026-05-04 21:01 40.94491 -75.33691 10437 ft 317 kts 112°
2026-05-04 21:01 40.93731 -75.30999 10120 ft 308 kts 112°
2026-05-04 21:01 40.92982 -75.28345 9809 ft 307 kts 112°
2026-05-04 21:02 40.92234 -75.25699 9466 ft 306 kts 112°
2026-05-04 21:02 40.91490 -75.23063 9116 ft 305 kts 112°
2026-05-04 21:02 40.90750 -75.20444 8769 ft 303 kts 112°
2026-05-04 21:02 40.90014 -75.17835 8434 ft 302 kts 112°
2026-05-04 21:03 40.89282 -75.15245 8097 ft 300 kts 113°
2026-05-04 21:03 40.88552 -75.12666 7764 ft 299 kts 113°
2026-05-04 21:03 40.87824 -75.10102 7440 ft 298 kts 113°
2026-05-04 21:03 40.87099 -75.07541 7115 ft 297 kts 113°
2026-05-04 21:04 40.86395 -75.05049 6980 ft 288 kts 113°
2026-05-04 21:04 40.85705 -75.02601 6994 ft 284 kts 113°
2026-05-04 21:04 40.85014 -75.00161 7001 ft 283 kts 113°
2026-05-04 21:04 40.84323 -74.97726 6997 ft 283 kts 114°
2026-05-04 21:05 40.83635 -74.95297 6990 ft 282 kts 113°
2026-05-04 21:05 40.82947 -74.92864 6999 ft 283 kts 113°
2026-05-04 21:05 40.82516 -74.90333 6996 ft 286 kts 92°
2026-05-04 21:05 40.82741 -74.87727 7092 ft 283 kts 79°
2026-05-04 21:06 40.83143 -74.85149 6758 ft 288 kts 78°
2026-05-04 21:06 40.83576 -74.82567 6463 ft 288 kts 78°
2026-05-04 21:06 40.83865 -74.80864 6267 ft 287 kts 78°
2026-05-04 21:07 40.84763 -74.75666 5998 ft 274 kts 78°
2026-05-04 21:07 40.85197 -74.73212 6006 ft 275 kts 78°
2026-05-04 21:07 40.85631 -74.70752 6007 ft 275 kts 77°
2026-05-04 21:07 40.86186 -74.68342 6004 ft 274 kts 70°
2026-05-04 21:08 40.86891 -74.65996 6008 ft 276 kts 68°
2026-05-04 21:08 40.87617 -74.63636 6010 ft 283 kts 68°
2026-05-04 21:08 40.88362 -74.61213 6009 ft 286 kts 68°
2026-05-04 21:08 40.89113 -74.58777 6008 ft 285 kts 68°
2026-05-04 21:09 40.89855 -74.56354 6009 ft 285 kts 68°
2026-05-04 21:09 40.90601 -74.53925 6007 ft 286 kts 68°
2026-05-04 21:09 40.91350 -74.51499 6008 ft 285 kts 68°
2026-05-04 21:09 40.92101 -74.49074 6010 ft 285 kts 68°
2026-05-04 21:10 40.92854 -74.46650 6005 ft 285 kts 68°
2026-05-04 21:10 40.93609 -74.44228 6005 ft 285 kts 68°
2026-05-04 21:10 40.94365 -74.41796 5737 ft 284 kts 69°
2026-05-04 21:10 40.94926 -74.39310 5483 ft 280 kts 77°
2026-05-04 21:11 40.95387 -74.36822 5230 ft 277 kts 78°
2026-05-04 21:11 40.95841 -74.34363 5045 ft 272 kts 77°
2026-05-04 21:11 40.96282 -74.31939 4854 ft 269 kts 77°
2026-05-04 21:11 40.96719 -74.29542 4602 ft 267 kts 78°
2026-05-04 21:12 40.96862 -74.27140 4348 ft 263 kts 101°
2026-05-04 21:12 40.96407 -74.24831 4104 ft 258 kts 111°
2026-05-04 21:12 40.95879 -74.22563 3995 ft 259 kts 111°
2026-05-04 21:12 40.95343 -74.20284 4006 ft 260 kts 111°
2026-05-04 21:13 40.94808 -74.18033 4001 ft 259 kts 112°
2026-05-04 21:13 40.94019 -74.15953 4012 ft 254 kts 129°
2026-05-04 21:13 40.92843 -74.14259 3855 ft 247 kts 146°
2026-05-04 21:13 40.91440 -74.13069 3680 ft 235 kts 156°
2026-05-04 21:14 40.90042 -74.12036 3529 ft 228 kts 156°
2026-05-04 21:14 40.88665 -74.11009 3405 ft 227 kts 156°
2026-05-04 21:14 40.87299 -74.09991 3268 ft 223 kts 155°
2026-05-04 21:14 40.85967 -74.08996 3146 ft 217 kts 156°
2026-05-04 21:15 40.84610 -74.08149 3016 ft 214 kts 169°
2026-05-04 21:15 40.83165 -74.07964 2819 ft 205 kts 190°
2026-05-04 21:15 40.81837 -74.08446 2615 ft 194 kts 207°
2026-05-04 21:15 40.81430 -74.08702 2523 ft 192 kts 208°
2026-05-04 21:16 40.78174 -74.10786 1819 ft 169 kts 208°
2026-05-04 21:16 40.77165 -74.11428 1610 ft 153 kts 209°
2026-05-04 21:16 40.76244 -74.12017 1413 ft 143 kts 210°
2026-05-04 21:17 40.75373 -74.12573 1248 ft 142 kts 209°
2026-05-04 21:17 40.74491 -74.13136 1056 ft 142 kts 213°
2026-05-04 21:17 40.73623 -74.13688 865 ft 134 kts 212°
2026-05-04 21:17 40.72777 -74.14228 686 ft 137 kts 212°
2026-05-04 21:18 40.71895 -74.14791 508 ft 142 kts 210°
2026-05-04 21:18 40.71023 -74.15346 314 ft 141 kts 207°
2026-05-04 21:18 40.70150 -74.15902 139 ft 138 kts 206°
2026-05-04 21:18 40.69858 -74.16087 88 ft 137 kts 207°
2026-05-04 21:19 40.68762 -74.16790 21 ft 65 kts 207°
2026-05-04 21:19 40.68510 -74.16950 21 ft 15 kts 205°
2026-05-04 21:19 40.68394 -74.17023 24 ft 30 kts 208°
2026-05-04 21:19 40.68254 -74.17196 22 ft 11 kts 237°
2026-05-04 21:20 40.68205 -74.17292 22 ft 14 kts 236°
2026-05-04 21:20 40.68148 -74.17405 21 ft 15 kts 247°
2026-05-04 21:20 40.68177 -74.17543 21 ft 17 kts 296°
2026-05-04 21:20 40.68238 -74.17670 22 ft 15 kts 325°
2026-05-04 21:21 40.68318 -74.17766 22 ft 17 kts 300°
2026-05-04 21:21 40.68371 -74.17914 22 ft 19 kts 295°
2026-05-04 21:21 40.68433 -74.18082 22 ft 22 kts 295°
2026-05-04 21:21 40.68501 -74.18253 22 ft 20 kts 279°
2026-05-04 21:22 40.68453 -74.18333 22 ft 10 kts 189°
2026-05-04 21:22 40.68432 -74.18336 22 ft 0 kts 185°